User: anonymous   Login
Location: Raven Hill Discovery Center
(45.1336°N, 85.0553°W)
Time: 16:23:19
(UTC-04:00)
Language:

Cosmos 1470 - Orbit

View from above orbital plane
View from above orbital plane
View from above satellite
View from above satellite

Ground track
Ground track

The orbit data is extracted from the following two-line orbital elements,

1 14147U 83061A   17230.43856659  .00001056  00000-0  61768-4 0  9998
2 14147  82.4880 337.8454 0016885  50.8022 309.4704 15.10695680614210
Epoch (UTC): 18 August 2017 10:31:32
Eccentricity: 0.0016885
inclination: 82.4880°
perigee height: 522 km
apogee height: 546 km
right ascension of ascending node: 337.8454°
argument of perigee: 50.8022°
revolutions per day: 15.10695680
mean anomaly at epoch: 309.4704°
orbit number at epoch: 61421

The dashed part of the orbit path shows where the satellite is in the earth's shadow,  

DLR